[[{"header":{"parameterUnit":"m.s-1","parameterCategory":1,"la1":30.2991,"la2":30.254,"lo1":-89.0895,"lo2":-89.0444,"dy":0.0017,"dx":0.0017,"nx":28,"ny":28,"refTime":"2025-07-03T09:00:00:Z","depth":0,"parameterNumber":2,"parameterNumberName":"U-component_of_WINDS"},"data":[0,0,0,0,0,0,0,0,0,0,0,0,0,0,0,0,0,0,0,0,0,0,0,0,0,0,0,0,0,0,0,0,0,0,0,0,0,0,0,0,0,0,0,0,0,0,0,0,0,0,0,0,0,0,0,0,0,0,1.5078,1.5077,0,1.5066,1.5066,1.5066,1.5008,1.5006,1.5005,1.5004,1.4993,1.4994,1.4995,0,0,0,0,0,0,0,0,0,0,0,0,0,1.5049,1.505,1.5078,1.5077,1.5077,1.5066,1.5066,1.5066,1.5008,1.5006,1.5004,1.5003,1.4993,1.4994,1.4995,0,0,0,0,0,0,0,0,0,0,0,0,0,1.5052,1.505,1.5078,1.5047,1.5044,1.5066,1.5066,1.5066,1.5008,1.5006,1.5004,1.5002,1.4992,1.4994,1.4995,1.5046,0,0,1.5,1.5,0,0,0,0,0,0,0,0,1.5052,1.5053,1.5052,1.5049,1.5046,1.5036,1.5052,1.5059,1.5009,1.5022,1.5003,1.5001,1.5009,1.5009,1.5012,1.5046,1.5045,1.5,1.5001,1.5001,1.5002,0,0,0,0,0,0,0,1.5052,1.5053,1.5073,1.5052,1.5048,1.5034,1.5032,1.5053,1.5027,1.5021,1.5016,1.5016,1.5007,1.501,1.5011,1.5045,1.5,1.5001,1.5002,1.5003,1.5121,1.5124,0,0,0,0,0,0,1.5056,1.5054,1.5073,1.5073,1.5044,1.5036,1.5034,1.5041,1.5027,1.5023,1.5018,1.5013,1.5009,1.5009,1.501,1.507,1.5001,1.5003,1.5004,1.5119,1.5122,1.5124,0,0,0,0,0,0,1.5055,1.5058,1.5074,1.5062,1.5063,1.5039,1.5048,1.5042,1.5045,1.5025,1.502,1.5025,1.5007,1.5008,1.5038,1.5068,1.5004,1.5005,1.5117,1.512,1.5123,1.5189,0,0,0,0,0,0,1.5055,1.5058,1.5077,1.5063,1.5064,1.5102,1.505,1.5044,1.5048,1.5042,1.5031,1.5027,1.5005,1.5036,1.5039,1.5069,1.5006,1.5114,1.5118,1.5122,1.5184,1.5194,1.5203,0,0,0,0,0,1.5054,1.5097,1.5079,1.5081,1.5087,1.5104,1.5104,1.5078,1.5051,1.507,1.5057,1.5027,1.5064,1.5039,1.5043,1.5074,1.5112,1.5117,1.5122,1.518,1.5192,1.5203,0,0,0,0,0,0,1.5116,1.5094,1.5074,1.5113,1.5111,1.5094,1.5117,1.5092,1.5098,1.5092,1.506,1.5058,1.5093,1.5086,1.5058,1.5123,1.5083,1.5089,1.5126,1.5138,1.5147,1.5148,1.5007,0,0,0,0,0,1.5134,1.5149,1.5129,1.5165,1.5165,1.5141,1.5148,1.5128,1.5124,1.5123,1.5112,1.5109,1.512,1.5129,1.5138,1.5182,1.5179,1.5205,1.5215,1.5223,1.5228,1.5252,1.5264,1.5141,1.5141,1.5141,0,0,1.5171,1.5161,1.5173,1.5177,1.5173,1.519,1.5141,1.516,1.5172,1.5126,1.5153,1.5145,1.514,1.5178,1.5194,1.5174,1.5262,1.5229,1.5236,1.5237,1.5259,1.527,1.5281,1.5144,1.5144,1.5143,0,0,1.5248,1.5242,1.5272,1.5268,1.5263,1.5247,1.5254,1.5241,1.5233,1.526,1.5226,1.524,1.526,1.5258,1.5259,1.5336,1.5309,1.534,1.5389,1.5413,1.5422,1.5431,1.5459,1.5469,1.5345,1.5346,1.5346,0,1.5296,1.5319,1.529,1.5312,1.5315,1.5274,1.5304,1.5302,1.53,1.5303,1.528,1.5304,1.5298,1.5335,1.5353,1.5356,1.5364,1.5341,1.5423,1.5432,1.5439,1.5465,1.5476,1.5349,1.5349,1.5348,1.5348,0,1.5378,1.5395,1.5419,1.5418,1.5424,1.545,1.5425,1.5435,1.5414,1.5401,1.5429,1.542,1.5427,1.5434,1.5415,1.5469,1.5456,1.5429,1.5388,1.5455,1.5479,1.5489,1.5355,1.5353,1.5352,1.5351,0,0,1.5494,1.5476,1.5486,1.5485,1.5475,1.5488,1.5512,1.5518,1.5527,1.5527,1.5546,1.5564,1.5539,1.5541,1.5521,1.5541,1.5603,1.5511,1.5511,1.5529,1.5662,1.5684,1.5696,1.5585,1.5587,1.5588,1.5663,0,1.5568,1.5608,1.5583,1.5627,1.5642,1.5603,1.5624,1.562,1.5608,1.562,1.5606,1.562,1.5585,1.5586,1.5605,1.5592,1.563,1.5586,1.5604,1.5605,1.5607,1.5708,1.573,1.5801,1.5672,1.5674,1.5675,0,1.566,1.5664,1.5709,1.5697,1.5702,1.5722,1.5725,1.5737,1.5732,1.5722,1.5725,1.5699,1.5722,1.5682,1.5714,1.5685,1.569,1.5685,1.5687,1.5689,1.5644,1.5713,1.5823,1.5834,1.5689,1.5688,1.5687,0,1.5741,1.5757,1.5786,1.5787,1.5773,1.5787,1.5782,1.5775,1.5781,1.5784,1.5788,1.5794,1.5798,1.5803,1.5781,1.5753,1.5816,1.5773,1.5808,1.5809,1.5824,1.5823,1.5938,1.5827,1.5827,1.5826,1.5826,0,1.5827,1.5856,1.5822,1.5841,1.5873,1.5843,1.5876,1.5867,1.5861,1.5877,1.5843,1.5859,1.5828,1.5841,1.5823,1.5852,1.5854,1.5847,1.5842,1.585,1.5851,1.5854,1.5849,1.5829,1.5829,1.5828,1.5827,0,1.5922,1.5901,1.5931,1.5915,1.5912,1.5936,1.5923,1.5939,1.5925,1.5946,1.5949,1.5926,1.594,1.5917,1.5928,1.5916,1.5957,1.5944,1.5959,1.5955,1.5992,1.5989,1.6112,1.6127,1.6006,1.6008,1.6009,0,1.5979,1.6001,1.5987,1.5996,1.5992,1.6006,1.6011,1.5983,1.599,1.5987,1.6004,1.6014,1.6021,1.6044,1.6029,1.6037,1.6025,1.6067,1.6026,1.6034,1.6026,1.6025,1.6028,1.6076,1.6078,1.6079,1.608,0,1.6082,1.607,1.6079,1.6085,1.6092,1.6095,1.6095,1.6104,1.6074,1.6084,1.6097,1.6102,1.6113,1.6124,1.6128,1.6123,1.6097,1.6093,1.6102,1.6111,1.6119,1.6116,1.5983,1.609,1.6089,1.6089,1.6088,1.6088,1.616,1.6178,1.6171,1.6183,1.618,1.6181,1.6196,1.6183,1.6194,1.62,1.6183,1.62,1.6195,1.6198,1.6196,1.6209,1.619,1.6203,1.6206,1.621,1.6216,1.6116,1.621,1.621,1.6209,1.6209,1.6209,0,1.6262,1.6256,1.6266,1.6268,1.6277,1.6251,1.625,1.6259,1.6275,1.6272,1.6279,1.6295,1.6305,1.6291,1.6299,1.6312,1.6301,1.6316,1.6315,1.6314,1.6232,1.6224,1.6325,1.6325,1.6325,1.6325,1.6325,1.6325,1.6316,1.6345,1.6332,1.6359,1.6353,1.6369,1.6371,1.6372,1.637,1.6389,1.6397,1.6387,1.638,1.6387,1.6396,1.6392,1.6396,1.6416,1.6408,1.6331,1.632,1.6309,1.6301,1.6417,1.6417,1.6488,1.6489,1.649]},{"header":{"parameterUnit":"m.s-1","parameterCategory":1,"la1":30.2991,"la2":30.254,"lo1":-89.0895,"lo2":-89.0444,"dy":0.0017,"dx":0.0017,"nx":28,"ny":28,"refTime":"2025-07-03T09:00:00:Z","depth":0,"parameterNumber":3,"parameterNumberName":"V-component_of_WINDS"},"data":[0,0,0,0,0,0,0,0,0,0,0,0,0,0,0,0,0,0,0,0,0,0,0,0,0,0,0,0,0,0,0,0,0,0,0,0,0,0,0,0,0,0,0,0,0,0,0,0,0,0,0,0,0,0,0,0,0,0,-2.094,-2.094,0,-2.1006,-2.1006,-2.1007,-2.099,-2.0988,-2.0987,-2.0986,-2.1055,-2.1058,-2.1061,0,0,0,0,0,0,0,0,0,0,0,0,0,-2.0801,-2.0803,-2.094,-2.094,-2.0941,-2.1006,-2.1007,-2.1007,-2.099,-2.0988,-2.0987,-2.0985,-2.1054,-2.1058,-2.1061,0,0,0,0,0,0,0,0,0,0,0,0,0,-2.0863,-2.0804,-2.0939,-2.094,-2.0941,-2.1005,-2.1007,-2.1008,-2.099,-2.0988,-2.0986,-2.0984,-2.1053,-2.1057,-2.1062,-2.113,0,0,-2.1076,-2.1078,0,0,0,0,0,0,0,0,-2.086,-2.0869,-2.0939,-2.094,-2.0941,-2.0987,-2.0983,-2.1049,-2.0991,-2.0972,-2.0986,-2.0983,-2.1034,-2.104,-2.1057,-2.1133,-2.1136,-2.1076,-2.1079,-2.1081,-2.1083,0,0,0,0,0,0,0,-2.0856,-2.0866,-2.0966,-2.094,-2.0942,-2.0938,-2.0945,-2.0995,-2.1013,-2.0973,-2.0972,-2.098,-2.1034,-2.1053,-2.1059,-2.1137,-2.1076,-2.108,-2.1083,-2.1085,-2.1275,-2.1277,0,0,0,0,0,0,-2.085,-2.0862,-2.0964,-2.0968,-2.0895,-2.0942,-2.095,-2.0975,-2.1013,-2.1017,-2.0982,-2.0979,-2.1046,-2.1053,-2.1061,-2.1144,-2.1081,-2.1086,-2.1088,-2.1272,-2.1275,-2.1277,0,0,0,0,0,0,-2.0847,-2.0859,-2.0961,-2.0915,-2.0927,-2.0947,-2.0975,-2.0977,-2.0995,-2.1019,-2.1022,-2.0997,-2.1045,-2.1054,-2.1113,-2.1146,-2.1088,-2.1092,-2.127,-2.1273,-2.1276,-2.131,0,0,0,0,0,0,-2.0843,-2.0858,-2.0884,-2.0915,-2.093,-2.1012,-2.0977,-2.098,-2.1003,-2.1,-2.1034,-2.1038,-2.1044,-2.1107,-2.1118,-2.1152,-2.1095,-2.1267,-2.1271,-2.1275,-2.1306,-2.1315,-2.1322,0,0,0,0,0,-2.0838,-2.0891,-2.0885,-2.0898,-2.0962,-2.1013,-2.1022,-2.1027,-2.1006,-2.1032,-2.1048,-2.1037,-2.1141,-2.1113,-2.1125,-2.1161,-2.1265,-2.127,-2.1275,-2.1303,-2.1313,-2.1321,0,0,0,0,0,0,-2.0863,-2.0895,-2.0889,-2.0953,-2.0981,-2.101,-2.1043,-2.1037,-2.1071,-2.1067,-2.1073,-2.1081,-2.1141,-2.1157,-2.1125,-2.123,-2.12,-2.1208,-2.1217,-2.1227,-2.1234,-2.1229,-2.1099,0,0,0,0,0,-2.0876,-2.0914,-2.094,-2.0994,-2.1009,-2.1024,-2.1046,-2.1048,-2.1077,-2.1089,-2.1108,-2.1138,-2.1177,-2.1203,-2.124,-2.1309,-2.1317,-2.134,-2.1347,-2.1353,-2.136,-2.1399,-2.141,-2.1294,-2.1294,-2.1294,0,0,-2.0903,-2.0925,-2.0949,-2.1,-2.1021,-2.1062,-2.1034,-2.1077,-2.1108,-2.1095,-2.1152,-2.1168,-2.1201,-2.1265,-2.1295,-2.128,-2.1394,-2.136,-2.1364,-2.1368,-2.1405,-2.1416,-2.1426,-2.1298,-2.1297,-2.1296,0,0,-2.0972,-2.0993,-2.104,-2.1063,-2.1096,-2.1106,-2.1117,-2.1149,-2.1158,-2.1215,-2.1207,-2.1244,-2.1311,-2.1336,-2.1357,-2.1437,-2.1429,-2.145,-2.1489,-2.1526,-2.1536,-2.1544,-2.1573,-2.1583,-2.1456,-2.1456,-2.1456,0,-2.1002,-2.1062,-2.1066,-2.1111,-2.1134,-2.1125,-2.1174,-2.1195,-2.1239,-2.1256,-2.1239,-2.1324,-2.1346,-2.1416,-2.1436,-2.1453,-2.1467,-2.1445,-2.1534,-2.1542,-2.155,-2.1578,-2.1589,-2.1458,-2.1458,-2.1458,-2.1458,0,-2.1097,-2.1139,-2.1173,-2.1216,-2.1243,-2.129,-2.1302,-2.1329,-2.1329,-2.1341,-2.14,-2.1426,-2.1469,-2.1486,-2.1486,-2.1557,-2.1547,-2.1532,-2.1502,-2.1563,-2.1589,-2.16,-2.1462,-2.1461,-2.146,-2.146,0,0,-2.1182,-2.1227,-2.124,-2.126,-2.1296,-2.1329,-2.1376,-2.1418,-2.1442,-2.1473,-2.1513,-2.1571,-2.1558,-2.1582,-2.1585,-2.1618,-2.1681,-2.1599,-2.16,-2.1614,-2.1762,-2.1773,-2.1785,-2.1676,-2.1678,-2.168,-2.1759,0,-2.1255,-2.1337,-2.1343,-2.1418,-2.1457,-2.145,-2.1491,-2.1518,-2.1531,-2.1567,-2.1582,-2.1623,-2.1602,-2.1617,-2.165,-2.1666,-2.1711,-2.1661,-2.1714,-2.1716,-2.1706,-2.1799,-2.181,-2.1884,-2.177,-2.1771,-2.1773,0,-2.1351,-2.1385,-2.1463,-2.1495,-2.1512,-2.1549,-2.1588,-2.1623,-2.1654,-2.1662,-2.1689,-2.1688,-2.1738,-2.1706,-2.1775,-2.1741,-2.1764,-2.1775,-2.1778,-2.1783,-2.1748,-2.1807,-2.1907,-2.1918,-2.1789,-2.1788,-2.1786,0,-2.1406,-2.1472,-2.1527,-2.1544,-2.1583,-2.1609,-2.1626,-2.1656,-2.1681,-2.1716,-2.1733,-2.1773,-2.1795,-2.1827,-2.1838,-2.1814,-2.1907,-2.1876,-2.1915,-2.1915,-2.1934,-2.1933,-2.204,-2.1949,-2.1949,-2.1948,-2.1948,0,-2.1487,-2.1536,-2.1553,-2.1587,-2.1641,-2.1648,-2.1702,-2.1718,-2.1745,-2.1783,-2.1779,-2.1815,-2.1827,-2.1865,-2.1873,-2.193,-2.194,-2.1948,-2.1949,-2.1948,-2.1947,-2.1963,-2.1958,-2.1951,-2.1951,-2.195,-2.195,0,-2.1558,-2.1571,-2.1631,-2.1663,-2.1672,-2.1711,-2.1739,-2.1772,-2.1785,-2.1834,-2.1845,-2.1866,-2.1911,-2.1924,-2.1979,-2.1984,-2.2051,-2.2048,-2.204,-2.204,-2.2078,-2.2074,-2.2199,-2.2216,-2.2113,-2.2114,-2.2115,0,-2.1608,-2.1645,-2.1681,-2.1706,-2.1725,-2.1765,-2.1791,-2.18,-2.1827,-2.1867,-2.1896,-2.1941,-2.1976,-2.2049,-2.2069,-2.2111,-2.2109,-2.215,-2.2115,-2.2113,-2.211,-2.2108,-2.2112,-2.2156,-2.2158,-2.2158,-2.2159,0,-2.1697,-2.1702,-2.1739,-2.1779,-2.181,-2.1842,-2.1872,-2.1893,-2.1907,-2.1938,-2.1984,-2.2012,-2.2068,-2.2112,-2.2155,-2.2174,-2.217,-2.217,-2.2181,-2.218,-2.2174,-2.2179,-2.2058,-2.2167,-2.2166,-2.2166,-2.2165,-2.2165,-2.1759,-2.1792,-2.1823,-2.1865,-2.1889,-2.1918,-2.1951,-2.1969,-2.2007,-2.2053,-2.2056,-2.2106,-2.2138,-2.2195,-2.2217,-2.2257,-2.2245,-2.2261,-2.2265,-2.2269,-2.2272,-2.2168,-2.2264,-2.2264,-2.2264,-2.2264,-2.2264,0,-2.1848,-2.1868,-2.1906,-2.1949,-2.1983,-2.1975,-2.2009,-2.2038,-2.2082,-2.2112,-2.2148,-2.2201,-2.2245,-2.2269,-2.2313,-2.234,-2.2339,-2.2351,-2.2349,-2.2354,-2.228,-2.2266,-2.2351,-2.2351,-2.2351,-2.2351,-2.2351,-2.2351,-2.1898,-2.1953,-2.1962,-2.2031,-2.205,-2.2099,-2.2119,-2.2147,-2.2171,-2.2231,-2.2267,-2.2282,-2.2311,-2.2357,-2.2397,-2.2403,-2.2419,-2.2433,-2.2438,-2.2368,-2.2359,-2.2351,-2.2337,-2.2436,-2.2436,-2.2508,-2.2509,-2.251]}]]